EW8359 Weather Reports


time (UTC)temp
C
wind
direction
speed
KPH
gust
KPH
rain 1hr
cm
rain 24hr
cm
rain mn
cm
humidity
%
barometer
mb
20260906163038 20 58 4.8 9.7 0.00 0.13 0.13 47 1012.8
20260906161527 19 13 6.4 14.5 0.00 0.13 0.13 49 1013.0
20260906160038 19 305 1.6 8.0 0.00 0.13 0.13 51 1013.2
20260906154524 19 231 1.6 14.5 0.00 0.13 0.13 57 1013.4
20260906153021 18 234 1.6 9.7 0.00 0.13 0.13 61 1013.4
20260906151518 18 190 1.6 19.3 0.00 0.13 0.13 65 1013.5
20260906150038 17 84 4.8 14.5 0.00 0.13 0.13 65 1013.5
20260906144513 17 103 3.2 11.3 0.00 0.13 0.13 72 1013.6
20260906143020 16 351 6.4 14.5 0.00 0.13 0.13 74 1013.8
20260906141507 15 152 1.6 8.0 0.00 0.13 0.13 83 1013.8
20260906140005 15 209 1.6 14.5 0.00 0.13 0.13 87 1013.9
20260906134502 15 32 3.2 14.5 0.00 0.13 0.13 87 1013.8
20260906133058 15 58 1.6 14.5 0.00 0.13 0.13 88 1013.7
20260906131557 14 22 1.6 8.0 0.00 0.13 0.13 89 1013.7
20260906130056 14 15 0.0 6.4 0.00 0.13 0.13 89 1013.6
20260906124554 14 9 0.0 8.0 0.00 0.13 0.13 90 1013.5
20260906123054 13 317 0.0 4.8 0.00 0.13 0.13 90 1013.8
20260906121553 13 37 1.6 4.8 0.00 0.13 0.13 90 1013.6
20260906120053 13 38 0.0 3.2 0.00 0.13 0.13 90 1013.5
20260906114551 13 37 1.6 4.8 0.00 0.13 0.13 90 1013.4
20260906113058 13 35 0.0 8.0 0.03 0.13 0.13 91 1013.4
20260906111550 13 329 0.0 3.2 0.05 0.13 0.13 90 1013.3
20260906110046 12 333 0.0 1.6 0.08 0.13 0.13 90 1013.1
20260906104555 12 335 0.0 1.6 0.08 0.13 0.13 91 1012.9
20260906103043 12 334 0.0 3.2 0.05 0.10 0.10 91 1012.9
20260906101543 12 334 0.0 3.2 0.03 0.08 0.08 90 1012.9
20260906100044 12 333 0.0 1.6 0.00 0.05 0.05 90 1012.8
20260906094606 12 333 0.0 1.6 0.00 0.05 0.05 90 1012.7
20260906093039 12 333 0.0 0.0 0.00 0.05 0.05 90 1012.6
20260906091542 12 333 0.0 0.0 0.00 0.05 0.05 90 1012.3
20260906090035 12 333 0.0 0.0 0.00 0.05 0.05 90 1012.3
20260906084538 12 333 0.0 0.0 0.00 0.05 0.05 90 1012.3
20260906083036 12 333 0.0 1.6 0.03 0.05 0.05 89 1012.2
20260906081543 12 333 0.0 1.6 0.05 0.05 0.05 89 1012.1
20260906080028 12 333 0.0 3.2 0.05 0.05 0.05 88 1012.0
20260906074527 13 333 0.0 3.2 0.05 0.05 0.05 87 1012.0
20260906073026 13 333 0.0 4.8 0.03 0.03 0.03 88 1012.0
20260906071526 13 355 0.0 3.2 0.00 0.00 0.00 87 1011.8
20260906070025 13 355 0.0 1.6 0.00 0.00 0.00 88 1012.1
20260906064523 13 355 0.0 1.6 0.00 0.00 0.00 87 1011.9
20260906063028 13 355 0.0 3.2 0.00 0.00 0.00 88 1011.7
20260906061532 13 355 0.0 1.6 0.00 0.00 0.00 87 1011.7
20260906060020 12 355 0.0 3.2 0.00 0.00 0.00 87 1011.8
20260906054519 12 355 0.0 3.2 0.00 0.00 0.00 87 1011.7
20260906053019 13 355 0.0 1.6 0.00 0.00 0.00 86 1011.8
20260906051516 13 355 0.0 3.2 0.00 0.00 0.00 86 1011.9
20260906050016 13 355 0.0 1.6 0.00 0.00 0.00 86 1011.9
20260906044512 13 5 0.0 3.2 0.00 0.00 0.00 85 1011.8
20260906043010 13 9 0.0 1.6 0.00 0.00 0.00 84 1011.6
20260906041507 14 27 0.0 3.2 0.00 0.00 0.00 83 1011.7
20260906040005 14 58 0.0 3.2 0.00 0.00 0.00 83 1011.7
20260906034504 15 22 0.0 4.8 0.00 0.00 0.00 82 1011.7
20260906033002 15 36 0.0 4.8 0.00 0.00 0.00 82 1011.4
20260906031502 15 61 1.6 6.4 0.00 0.00 0.00 81 1011.4
20260906030002 15 59 3.2 8.0 0.00 0.00 0.00 82 1011.4
20260906024603 15 26 0.0 4.8 0.00 0.00 0.00 83 1011.4
20260906023058 15 265 0.0 4.8 0.00 0.00 0.00 83 1011.2
20260906021605 15 111 1.6 8.0 0.00 0.00 0.00 83 1011.1
20260906014559 16 59 0.0 4.8 0.00 0.00 0.00 83 1011.0
20260906013157 16 9 0.0 3.2 0.00 0.00 0.00 84 1011.2
20260906011557 16 330 0.0 3.2 0.00 0.00 0.00 83 1011.0
20260906010105 16 329 0.0 1.6 0.00 0.00 0.00 83 1011.1
20260906004557 17 329 0.0 1.6 0.00 0.00 0.00 81 1011.0
20260906003052 17 329 0.0 3.2 0.00 0.00 0.00 83 1010.9
20260906001600 17 329 0.0 4.8 0.00 0.00 0.00 81 1010.7
20260906000050 17 44 0.0 1.6 0.00 0.00 0.00 80 1010.5
20260905234547 17 47 0.0 3.2 0.00 0.00 0.00 80 1010.5
20260905233047 17 75 0.0 3.2 0.00 0.00 0.00 82 1010.3
20260905231546 17 74 0.0 1.6 0.00 0.00 0.00 81 1010.3
20260905230051 18 74 0.0 1.6 0.00 0.00 0.00 77 1010.1
20260905224544 18 74 0.0 1.6 0.00 0.00 0.00 75 1010.2
20260905223043 19 5 3.2 9.7 0.00 0.00 0.00 72 1010.0
20260905221546 19 37 0.0 6.4 0.00 0.00 0.00 75 1009.8
20260905220035 20 53 0.0 3.2 0.00 0.00 0.00 76 1009.7
20260905214533 20 29 1.6 11.3 0.00 0.00 0.00 70 1009.4
20260905213035 20 12 0.0 8.0 0.00 0.00 0.00 74 1009.3
20260905211542 20 94 1.6 11.3 0.00 0.00 0.00 72 1009.2
20260905210031 20 320 1.6 9.7 0.00 0.00 0.00 68 1009.1
20260905204529 21 333 1.6 14.5 0.00 0.00 0.00 68 1009.0
20260905203032 21 227 1.6 9.7 0.00 0.00 0.00 70 1008.9
20260905201534 21 310 3.2 9.7 0.00 0.00 0.00 68 1008.8
20260905200045 21 328 6.4 14.5 0.00 0.00 0.00 66 1008.8
20260905194526 21 355 8.0 17.7 0.00 0.00 0.00 63 1008.8
20260905193025 21 334 4.8 19.3 0.00 0.00 0.00 65 1008.8
20260905191525 21 9 3.2 12.9 0.00 0.00 0.00 67 1008.8
20260905190022 20 330 1.6 9.7 0.00 0.00 0.00 71 1008.7
20260905184621 20 60 4.8 14.5 0.00 0.00 0.00 71 1008.8
20260905183021 20 33 3.2 11.3 0.00 0.00 0.00 72 1008.7
20260905181520 20 42 6.4 14.5 0.00 0.00 0.00 74 1008.8
20260905180020 20 47 1.6 9.7 0.00 0.00 0.00 76 1008.8
20260905174519 19 360 4.8 11.3 0.00 0.15 0.00 78 1008.8
20260905173019 18 29 0.0 12.9 0.00 0.15 0.00 80 1008.8
20260905171534 21 84 11.3 17.7 0.00 0.15 0.00 70 1008.8
20260905170017 20 44 4.8 11.3 0.00 0.15 0.00 77 1008.7
20260905164516 20 91 3.2 14.5 0.00 0.15 0.00 78 1008.8